map of NKC home
NKC - Airport
Location
City:  Nouakchott, Mauritania
Name:Nouakchott-Oumtounsy International Airport
ICAO:GQNO
IATA:NKC

Details
Type:Airport (Aerodrome, Airfield)
Use:Public/Civil, International (customs port of entry)
Latitude:18°18'36"N (18.309881)
Longitude:15°58'11"W (-15.969630)
Elevation:10 ft (3 m)
Variation:5.91°W (WMM2015 magnetic declination)
0.11° annual change
Runways:2
Longest:11155 × 197 ft (3400 × 60 m), paved

Time
Time Zone:UTC+0
Local Time:

Weather
METAR:GQNO 221900Z 04008KT CAVOK 23/04 Q1016 NOSIG
TAF:GQNO 221700Z 2218/2324 02010KT 8000 NSC
BECMG 2308/2311 08012KT PROB30
TEMPO 2310/2314 4000 BLDU
BECMG 2316/2318 36010KT

Related Locations
Nearby:
Farthest:BMY: 12331 mi / 19844 km
Waala [Belep Islands Airport], Īle Art, Belep Islands, NC

Find:

   beyond  
but within

Other Information
Maps:
NOTAMs:
Links:
Sources:

  
  • flag of Mauritania
  

Sectional Chart

Flight Planning
at skyvector.com

Satellite Image

Google Maps Satellite view

 

Copyright © 2004-2019 Karl L. Swartz. All rights reserved.
The Great Circle Mapper name and logo are trademarks of the Great Circle Mapper.
All other trademarks mentioned herein belong to their respective owners.
Please see credits for attibutions and further copyright information.

  Follow gcmap on Facebook Follow gcmap on Twitter Follow gcmap on Google+ GCmap on LinkedIn

hCard Microformat

Geo Microformat